TELSTAR 19V (43562 NORAD) Tracking and Keplerian Element Data

This shows tracking and keplerian element data for the satellite.

Feedback or suggestion? Click here.




ElementValue
Catalog43562
NameTELSTAR 19V
Epoch Orbit1187
Epoch Day270.1287931
Epoch Year2021
RAAN193.1473
Inclination0.0091
Eccentricity0.0003048
Argument of Perigee333.0546
Mean Anonmoly183.3227
Mean Motion1.002734
Decay Rate-2.81E-06
L11 43562U 18059A 21270.12879310 -.00000281 00000-0 00000+0 0 9997
L22 43562 0.0091 193.1473 0003048 333.0546 183.3227 1.00273400 11879

Live tracking and technical data element details for TELSTAR 19V (NORAD 43562). TELSTAR 19V can be tracked NOW for your location showing map with azimuth and elevation plus other details from your city location.

Track the satellite on the map from your city or location and see movement details for azimuth, elevation, latitude, longitude, range, height, and movement on the map or in text.







IsCatalogInMostPopularTable: catalog: 43562, numindb: 890
Update: records affected: 1



GetName: 43562 TELSTAR 19V

Hit Count: updated at: Tue, 28 Sep 2021 16:50:11 GMT